GFSNIL_con_3kmhel_000.txt.gz
Helicity
66 86 81 81 84 80 77 72 70 97 123 139 155 165 182 235 283 316 357 347 363 364
56 57 67 59 68 77 68 80 83 98 123 133 151 165 209 277 249 262 305 356 356 372
59 49 48 56 62 59 61 66 74 83 102 123 143 162 180 239 242 259 314 356 339 357
84 80 74 90 96 92 67 70 70 73 86 107 134 177 199 214 224 249 274 313 340 336
41 73 87 89 107 111 129 104 83 90 103 108 136 156 185 190 253 267 294 298 314 338
59 78 105 119 121 123 116 111 108 97 96 98 99 129 144 180 209 256 255 271 298 300
36 23 28 58 90 116 127 125 112 100 89 84 91 106 132 140 170 208 223 239 256 288
29 36 37 47 65 70 76 77 91 98 90 84 85 120 97 122 144 170 178 219 239 279
55 46 38 46 64 61 68 74 77 72 78 80 89 107 123 91 111 97 126 146 216 239
56 50 55 66 63 61 86 97 94 101 100 96 93 114 121 140 118 145 222 173 173 191
39 38 36 36 44 66 71 68 55 53 89 123 103 124 139 150 122 137 152 144 150 195
36 23 16 17 14 2 4 19 28 34 29 34 72 135 138 164 133 159 115 123 160 180
86 52 20 8 9 24 37 38 35 16 14 37 32 67 120 79 105 163 162 119 113 124
95 66 46 32 37 33 30 44 53 53 56 51 41 18 92 110 47 92 146 101 69 104

GFSNIL_con_3kmhel_003.txt.gz
Helicity
75 77 75 69 75 92 107 121 114 128 131 125 148 180 215 283 291 307 324 329 383 428
60 62 64 76 83 91 81 90 90 100 117 128 139 154 207 289 297 315 340 384 360 406
71 78 79 77 87 92 92 93 92 90 95 109 124 135 139 206 238 265 336 391 370 386
42 45 57 67 75 75 80 87 104 111 135 128 124 118 138 146 175 227 260 286 345 352
29 40 46 39 48 59 79 71 65 77 90 107 110 104 101 118 161 193 223 243 283 328
44 63 61 60 65 69 77 73 65 62 63 62 72 76 79 85 111 157 164 190 211 246
51 31 26 29 33 33 35 51 73 75 61 51 49 54 69 82 101 123 148 172 171 171
57 54 42 18 -4 -15 -2 18 26 44 57 53 64 60 65 62 71 87 87 99 134 165
54 57 41 31 21 13 11 12 20 32 42 59 61 66 49 23 48 76 82 100 100 142
44 39 31 26 17 13 6 -0 1 6 19 40 49 51 73 68 39 57 95 95 90 122
41 32 21 18 17 16 4 3 9 10 16 22 30 39 41 67 32 53 61 108 109 95
37 29 26 28 30 22 22 13 7 10 11 12 23 38 47 46 43 52 63 39 116 89
50 55 59 62 58 54 54 51 40 28 26 36 55 55 55 59 50 50 72 30 18 55
70 75 81 87 93 98 91 81 66 54 56 60 58 58 65 72 66 62 63 60 -45 -3

GFSNIL_con_3kmhel_006.txt.gz
Helicity
112 99 93 90 86 74 69 74 94 101 119 179 193 171 176 202 210 230 276 296 351 392
134 134 121 119 107 102 86 85 84 79 94 105 108 127 153 193 192 215 243 264 292 337
83 93 98 96 96 92 96 101 111 115 114 103 95 103 112 129 146 164 205 255 264 289
58 61 58 65 72 79 84 82 85 85 93 103 121 130 138 122 109 121 135 162 193 212
35 33 34 29 41 49 54 55 59 72 91 95 93 84 95 119 127 132 143 126 129 135
48 39 33 28 23 20 21 33 39 46 59 69 73 76 76 78 95 99 91 107 125 118
69 60 58 49 35 20 10 8 19 42 56 64 72 83 90 101 81 71 88 105 121 119
88 79 68 54 44 40 39 35 23 14 18 27 44 63 73 65 86 94 93 77 82 117
102 91 64 49 38 39 48 49 48 53 51 52 51 70 84 115 76 39 27 38 67 93
100 86 71 58 43 35 34 32 31 29 27 38 51 65 100 73 40 37 31 44 56 71
81 63 42 27 22 23 22 23 29 29 41 44 50 45 83 79 55 56 52 50 41 61
33 23 14 17 25 35 34 48 42 44 40 51 72 93 91 94 68 56 60 60 59 63
20 16 23 30 42 48 64 73 72 89 67 54 87 77 87 94 55 56 48 55 39 40
24 35 33 45 48 59 62 73 87 92 105 128 79 66 80 101 75 46 60 57 45 39

GFSNIL_con_3kmhel_009.txt.gz
Helicity
146 129 123 127 118 132 136 144 148 177 185 184 155 112 106 145 183 196 184 171 220 262
109 102 104 94 76 82 88 102 115 112 126 143 153 160 165 152 146 141 120 115 129 160
67 59 55 52 71 73 86 92 110 119 121 123 125 129 142 144 141 153 142 130 128 128
60 45 47 51 59 64 63 67 70 76 84 100 112 123 134 146 159 179 195 190 183 181
61 46 49 57 46 34 17 12 12 23 43 67 80 91 108 118 148 166 182 197 199 183
94 72 65 57 59 41 36 34 25 23 24 31 51 66 67 104 94 76 82 92 106 111
108 80 71 52 40 46 57 62 58 59 70 65 50 58 71 96 118 119 105 94 89 85
93 88 61 61 65 65 66 67 67 72 67 69 72 57 82 107 74 77 70 53 48 61
99 71 70 69 67 62 56 50 54 60 62 74 80 94 136 144 66 54 15 22 30 47
76 66 58 51 48 44 40 44 57 69 73 88 96 86 150 148 72 40 54 48 47 33
68 58 45 36 37 35 39 47 57 64 70 91 111 109 186 189 84 103 93 88 78 77
62 57 47 40 33 40 45 44 41 40 57 74 129 195 238 165 134 133 125 110 85 98
56 46 43 42 44 47 50 41 35 45 68 72 110 117 117 111 122 133 127 102 77 74
66 66 63 68 67 58 41 43 61 62 66 83 93 86 68 97 113 124 118 73 60 70

GFSNIL_con_3kmhel_012.txt.gz
Helicity
106 85 84 85 77 86 92 95 105 119 128 149 167 175 166 153 162 168 171 165 128 111
102 98 85 77 65 70 80 92 104 97 103 114 128 144 151 148 164 173 171 179 168 182
75 76 74 66 67 69 68 70 67 68 73 81 91 104 121 132 141 164 171 172 189 174
68 61 50 38 34 38 37 37 34 38 49 60 70 82 97 112 130 159 156 141 134 156
79 73 68 79 88 89 86 82 81 79 72 70 62 65 80 99 91 115 105 116 130 137
107 100 104 99 98 99 93 88 78 76 84 82 72 82 76 58 78 92 101 103 91 87
102 114 124 117 113 98 81 71 65 66 66 62 64 73 74 102 99 74 66 84 82 44
130 146 121 113 94 80 75 69 61 58 59 56 66 75 100 116 118 98 91 71 42 34
152 136 119 98 92 86 84 74 68 67 68 72 83 71 108 170 147 128 113 72 44 51
149 131 107 84 75 68 55 49 52 56 68 71 74 69 107 157 135 121 117 95 83 73
128 117 81 67 59 54 57 58 64 71 75 75 77 60 103 114 92 78 94 120 98 132
114 89 76 74 72 82 83 87 83 72 68 69 81 63 79 109 116 120 126 104 110 128
94 84 77 75 79 80 92 97 96 95 85 61 85 85 86 105 123 123 113 93 82 40
79 72 60 76 87 96 102 94 101 104 96 80 95 96 75 81 103 106 95 77 67 66

GFSNIL_con_3kmhel_015.txt.gz
Helicity
89 59 55 62 59 59 63 62 72 87 84 87 93 103 115 122 143 152 183 195 203 196
80 75 66 70 62 59 60 72 82 76 69 70 73 85 94 93 104 127 139 161 171 182
90 92 77 63 65 70 75 82 76 70 71 71 73 76 86 89 101 115 112 117 128 135
98 88 79 67 58 61 77 76 79 83 78 79 77 69 87 91 85 98 87 90 94 110
86 71 80 99 99 106 97 88 79 66 64 58 64 66 82 90 93 86 75 76 85 88
102 112 115 113 113 111 97 84 68 63 57 52 44 49 58 69 74 72 81 80 73 76
162 153 169 132 119 111 91 72 62 56 48 44 44 46 47 74 80 77 79 75 67 46
130 153 119 106 99 83 74 74 74 75 78 79 80 73 90 91 102 97 76 66 56 45
181 136 125 123 116 104 88 76 71 73 72 75 78 61 85 114 118 112 80 64 50 63
131 127 122 114 102 97 80 66 75 78 83 85 89 59 84 108 127 107 97 96 91 92
143 140 128 111 95 84 83 82 84 77 78 85 81 66 94 113 119 119 109 105 105 95
137 132 121 115 104 92 85 76 71 74 89 86 80 56 84 120 118 107 107 98 91 69
124 126 118 103 86 77 84 93 105 103 83 58 71 43 68 93 111 106 107 100 63 27
115 115 99 99 96 106 114 109 102 101 91 77 77 91 74 77 96 104 103 77 60 60

GFSNIL_con_3kmhel_018.txt.gz
Helicity
72 52 51 57 49 42 35 30 52 63 67 66 61 61 60 57 69 75 103 111 122 133
74 78 67 64 46 48 63 82 88 72 72 67 64 58 50 55 63 73 82 95 101 117
88 85 80 81 89 84 77 94 79 75 68 67 58 61 50 60 60 65 82 72 79 88
117 118 91 77 98 106 116 105 79 62 57 45 39 45 46 61 50 77 72 69 76 83
113 93 95 100 109 110 94 62 58 50 47 45 44 35 42 35 39 58 50 45 71 55
101 100 112 107 104 116 87 87 77 64 46 34 30 44 36 43 60 62 66 80 64 47
102 97 102 118 123 100 92 73 61 56 53 56 63 60 75 108 121 124 121 116 84 58
110 103 98 126 102 82 73 71 67 67 63 57 64 74 118 127 133 134 142 112 85 63
116 126 135 97 80 75 82 80 70 68 69 85 99 101 121 137 145 144 132 109 86 80
159 116 77 81 92 96 80 68 74 89 105 112 120 83 98 102 132 130 119 110 109 101
108 92 99 94 81 76 75 96 114 111 114 125 118 65 79 89 117 113 108 113 113 108
104 96 88 88 92 104 116 117 122 116 117 114 110 59 69 92 117 123 120 115 115 90
97 97 106 106 110 127 125 127 131 135 110 85 113 60 67 98 132 123 118 125 105 54
111 111 102 125 135 128 133 130 135 138 134 114 91 88 59 63 94 103 123 128 123 147

GFSNIL_con_3kmhel_021.txt.gz
Helicity
96 72 66 73 60 50 46 43 68 71 87 82 80 78 70 58 57 49 51 73 82 83
115 111 79 71 56 51 55 65 99 111 93 85 79 71 59 43 27 17 33 45 42 52
116 103 80 66 73 78 96 122 110 90 82 70 52 35 28 32 36 57 75 74 76 76
124 103 64 77 91 101 101 118 103 79 62 54 51 51 49 49 49 69 73 76 80 93
129 104 124 130 122 129 119 104 74 63 62 60 51 39 40 56 80 94 103 118 114 115
142 149 139 151 143 124 106 88 80 73 61 45 41 54 63 82 105 127 132 128 124 119
120 116 124 120 126 115 97 73 66 53 43 47 55 59 91 116 129 132 124 119 124 111
84 101 122 138 110 89 71 58 43 42 50 53 69 96 116 123 133 135 130 123 109 104
50 115 122 104 91 76 57 49 47 52 55 75 96 96 112 130 137 121 116 107 96 110
109 113 102 90 77 68 55 51 53 59 76 94 104 88 85 87 115 125 105 97 108 117
111 118 105 86 66 61 53 50 61 78 84 89 93 62 70 87 129 124 105 97 86 86
120 101 84 77 67 48 52 70 80 78 78 86 99 64 83 101 124 122 103 98 88 83
91 83 75 62 48 56 76 86 94 94 94 71 90 60 64 91 125 110 118 99 93 57
84 79 57 60 57 71 80 83 95 101 102 84 78 83 61 63 100 111 123 116 116 126

GFSNIL_con_3kmhel_024.txt.gz
Helicity
94 87 84 83 65 67 64 62 66 86 99 103 89 79 80 66 76 67 56 44 45 54
128 128 114 96 61 47 75 86 100 107 107 101 94 84 71 67 59 61 62 72 83 98
145 149 148 115 97 93 109 122 122 119 110 97 85 73 66 64 70 75 94 106 111 122
143 140 142 118 118 132 138 138 123 105 95 84 69 61 62 72 80 101 103 105 121 128
143 119 113 124 131 153 156 118 107 95 80 62 57 63 74 82 89 97 101 108 123 140
113 101 109 117 156 158 121 105 87 78 67 60 63 61 62 83 94 105 117 127 146 145
108 73 52 112 133 114 93 83 81 71 59 51 50 58 83 94 103 125 139 144 151 143
62 26 93 126 109 93 88 79 65 55 49 54 68 78 105 105 119 138 142 134 129 127
68 80 125 111 98 89 74 64 60 63 58 61 77 86 85 108 131 124 128 134 111 101
113 128 108 99 90 87 78 69 69 58 60 69 73 77 79 86 116 131 136 117 109 103
126 117 112 101 91 87 82 75 65 68 71 73 74 74 92 94 112 139 121 99 108 99
125 119 102 97 94 87 94 73 69 73 74 73 71 93 86 88 129 124 95 104 102 90
112 92 94 95 96 91 78 73 85 82 93 86 73 58 57 89 127 116 126 103 97 70
96 98 91 95 87 82 79 86 84 88 97 79 62 58 76 78 116 123 126 135 124 116

GFSNIL_con_3kmhel_027.txt.gz
Helicity
156 126 116 117 116 98 83 77 68 76 94 109 105 101 95 82 89 75 94 74 92 104
162 151 133 129 118 111 110 79 102 116 118 110 96 90 86 90 76 93 89 96 99 113
174 153 136 128 128 126 115 115 129 132 112 100 96 92 90 87 90 92 104 104 111 120
179 161 133 125 120 108 111 123 128 121 109 104 96 92 95 85 81 98 97 98 121 140
182 156 138 110 75 75 105 122 124 119 109 98 91 88 81 80 86 106 103 114 133 144
176 143 110 66 42 87 120 125 120 111 98 88 87 84 75 72 122 109 116 126 141 143
170 147 99 46 60 110 119 111 102 96 90 82 81 81 72 135 122 118 119 126 129 129
154 113 52 61 99 111 105 99 93 93 84 83 92 86 140 124 123 113 110 100 102 133
114 54 72 98 105 110 107 92 91 85 92 100 115 89 85 114 115 102 85 87 110 140
50 79 104 116 115 103 88 88 97 102 110 119 119 73 83 88 108 88 97 97 140 154
73 115 125 111 97 99 109 105 112 117 124 117 114 72 79 74 94 100 101 128 140 137
120 126 113 107 113 104 115 120 122 118 107 105 122 80 68 78 97 115 123 142 137 115
113 113 110 108 99 116 116 116 118 103 109 97 115 69 56 74 128 134 153 152 131 81
104 107 98 101 107 112 112 110 109 107 111 103 90 99 80 68 118 143 159 161 148 142

GFSNIL_con_3kmhel_030.txt.gz
Helicity
184 158 139 130 108 89 78 70 89 93 91 86 84 82 84 83 90 91 101 101 111 122
188 185 160 149 125 104 96 94 103 101 92 88 89 92 91 90 91 105 111 118 124 136
197 192 161 140 126 107 86 91 89 92 90 86 89 94 101 105 111 124 130 123 123 123
207 191 162 136 112 89 72 84 89 84 84 89 94 101 113 121 122 125 127 120 125 126
210 178 152 132 107 61 71 84 83 89 92 97 106 117 125 130 123 143 145 126 123 120
196 170 154 123 79 67 80 82 85 95 99 107 115 124 127 123 155 141 129 127 121 114
183 158 121 96 83 77 77 78 86 91 105 116 125 125 112 139 139 143 142 120 111 100
168 128 101 81 71 71 77 78 84 107 120 118 117 115 123 133 148 143 140 109 99 111
148 102 64 65 77 66 65 86 108 110 112 128 136 100 75 98 140 145 124 112 118 127
120 72 68 63 59 71 94 101 100 112 135 145 140 63 57 69 129 145 138 127 133 137
94 71 63 67 83 93 98 100 122 135 134 138 121 44 54 58 135 148 147 144 141 136
82 79 76 85 86 85 105 125 143 136 126 122 106 66 53 72 132 148 152 154 153 135
85 68 74 85 87 108 120 126 128 115 112 85 111 75 59 112 160 166 169 163 151 89
64 70 81 89 104 116 116 122 120 111 117 122 116 123 111 104 148 164 161 160 153 146

GFSNIL_con_3kmhel_033.txt.gz
Helicity
190 175 165 150 122 99 82 68 65 74 78 75 75 76 78 71 78 90 101 110 131 144
187 182 157 151 130 100 86 73 78 82 80 81 84 85 84 84 88 102 111 129 143 141
182 177 171 156 129 106 84 73 80 82 86 84 84 84 87 93 105 116 131 147 148 144
200 193 171 145 114 99 83 82 84 78 78 77 76 77 97 111 110 135 147 129 158 142
208 185 167 134 113 94 84 77 73 75 74 75 86 94 106 122 136 165 162 150 153 140
202 176 145 119 96 83 79 75 71 74 78 83 90 102 117 130 138 156 151 144 141 130
183 154 121 100 83 81 75 69 72 75 79 87 100 111 109 127 158 159 154 139 134 124
160 134 112 93 85 74 66 70 71 76 86 99 105 105 126 143 157 157 147 144 145 133
149 129 101 84 73 72 74 70 71 91 109 114 108 82 105 126 142 149 157 153 144 152
136 107 87 82 85 75 65 71 90 102 110 128 142 101 94 91 127 148 170 161 160 147
117 100 91 86 72 67 74 94 106 110 125 143 130 85 85 84 144 165 173 172 153 130
108 99 82 78 70 65 94 109 124 129 134 139 118 88 98 136 166 183 184 156 140 113
97 81 79 63 58 84 101 114 131 125 123 94 114 102 116 159 183 181 169 147 112 68
85 69 46 53 81 97 112 124 127 129 122 114 113 126 109 122 156 139 143 141 134 133

GFSNIL_con_3kmhel_036.txt.gz
Helicity
183 168 152 135 133 122 105 83 74 95 113 124 120 105 93 77 78 87 99 111 133 153
194 185 169 164 155 132 111 93 109 118 127 126 114 99 89 87 90 98 102 114 142 158
206 191 174 166 151 138 114 109 131 133 134 122 105 92 91 96 101 109 124 130 145 162
205 192 179 164 146 125 115 135 135 132 124 103 89 89 98 103 103 124 123 138 162 173
206 188 177 160 138 122 138 130 129 117 102 92 90 94 105 109 111 126 156 161 169 169
199 184 171 152 142 139 128 120 119 111 102 95 95 96 99 102 120 149 165 165 171 170
189 174 163 146 130 124 118 123 117 105 90 90 91 90 98 121 146 159 162 173 185 179
179 176 152 132 127 118 128 119 101 92 94 95 94 98 108 131 156 164 180 189 179 160
179 157 138 130 127 133 124 100 91 101 95 90 106 91 109 155 173 173 177 166 161 186
159 145 145 136 133 118 97 90 94 90 96 112 119 113 144 150 169 172 160 180 195 195
154 151 135 130 115 97 89 91 92 93 107 106 109 143 152 139 165 161 171 190 195 175
145 140 128 120 107 85 91 93 99 106 99 116 127 127 130 138 150 152 170 184 167 105
136 131 124 102 93 85 84 81 104 108 120 123 141 94 105 112 146 157 179 157 106 67
135 125 100 88 81 77 81 99 114 121 129 126 113 113 63 102 163 162 168 132 131 117

GFSNIL_con_3kmhel_039.txt.gz
Helicity
220 199 185 154 145 143 134 126 124 128 128 135 135 128 114 93 83 83 83 89 97 118
218 201 177 172 160 147 140 130 140 134 141 135 131 119 103 94 93 93 92 92 103 133
221 205 184 173 167 163 154 145 149 148 149 136 126 115 108 98 91 92 98 109 132 145
230 213 200 192 174 161 156 157 160 152 142 137 125 113 104 95 83 102 112 125 139 143
225 213 210 191 169 155 165 155 146 144 143 133 118 107 103 93 97 107 113 117 143 153
232 219 199 176 166 164 160 158 161 149 141 122 111 102 89 92 101 104 120 136 156 165
221 197 178 168 163 168 161 165 146 136 122 114 99 85 86 101 105 117 127 147 164 175
207 190 178 173 173 167 162 142 134 129 118 104 86 87 92 106 108 124 144 156 162 182
198 187 175 170 173 165 144 139 134 122 99 91 95 90 101 107 141 153 155 170 186 206
183 178 172 177 162 144 142 131 115 100 96 100 103 77 95 110 149 160 172 188 189 180
178 184 179 159 152 144 123 108 100 99 102 106 104 87 94 104 159 179 180 175 159 151
188 168 160 164 152 118 108 108 102 100 103 108 101 81 101 140 168 159 157 149 137 99
167 172 168 150 126 101 100 93 97 102 108 89 110 91 122 137 151 148 153 152 111 88
184 174 154 130 109 108 96 101 111 103 100 100 110 123 105 116 145 149 158 140 126 115

GFSNIL_con_3kmhel_042.txt.gz
Helicity
283 262 235 187 173 168 151 128 108 117 127 135 126 119 107 99 92 95 91 89 90 109
289 254 222 213 193 171 135 115 124 137 143 134 133 123 113 103 94 91 92 95 100 122
281 247 222 206 193 164 141 129 136 145 143 137 132 120 113 99 95 104 104 106 108 113
283 258 234 205 170 151 135 135 141 141 141 136 127 121 110 98 91 106 103 102 108 123
274 243 219 191 164 139 143 138 139 145 143 133 123 111 109 104 100 98 98 103 126 130
248 221 203 177 154 149 143 143 148 145 139 131 118 113 103 92 91 90 95 109 129 133
219 203 179 160 158 155 141 141 136 134 134 123 109 92 85 90 88 95 120 131 131 132
206 186 177 174 163 146 141 133 133 137 131 111 90 84 80 83 99 123 129 124 126 127
192 191 183 169 149 137 139 134 134 132 110 92 87 68 69 97 131 127 128 125 131 170
198 196 178 152 141 149 142 133 125 101 88 88 85 66 81 91 134 136 127 134 165 181
193 181 162 149 158 152 133 122 93 84 84 87 88 83 87 93 133 129 141 172 163 159
170 166 158 166 165 131 118 101 95 84 83 88 84 91 93 92 124 147 152 158 133 125
173 174 167 152 131 108 98 95 86 84 78 77 107 83 75 81 142 153 158 139 140 97
177 172 146 129 114 111 98 93 85 80 100 101 96 96 67 103 141 148 158 145 135 128

GFSNIL_con_3kmhel_045.txt.gz
Helicity
371 387 326 249 211 185 155 132 105 107 104 96 95 96 94 96 94 94 89 85 72 76
355 354 279 228 197 161 141 115 108 104 102 96 104 109 109 103 101 98 97 86 83 87
361 318 251 211 176 148 132 116 112 105 100 102 109 118 115 111 107 101 93 91 96 102
345 283 244 208 164 139 127 119 112 105 107 108 113 123 116 109 94 95 96 103 112 118
334 280 232 185 155 135 135 118 114 111 112 109 121 110 104 99 92 92 100 114 128 122
302 248 198 171 153 139 123 120 119 116 112 115 106 94 85 78 84 98 112 117 113 112
248 204 176 157 143 129 119 122 120 108 107 99 89 81 77 78 92 107 108 107 108 119
226 197 170 151 137 133 134 122 100 100 100 90 80 80 79 82 96 104 108 107 115 123
207 175 153 144 144 146 118 98 105 107 93 92 79 64 75 90 104 114 113 112 114 116
172 162 155 148 149 117 100 103 102 91 85 77 67 67 82 89 115 119 110 114 111 99
166 172 164 158 124 98 101 98 83 78 68 67 70 80 86 87 105 115 116 97 83 105
168 164 146 131 108 102 90 88 79 63 67 72 84 84 75 91 119 116 87 85 86 108
160 144 122 104 106 94 90 81 66 67 76 77 74 73 84 98 110 102 115 103 114 94
133 136 121 112 98 92 88 75 82 84 78 75 84 95 95 92 111 118 132 139 122 117

GFSNIL_con_3kmhel_048.txt.gz
Helicity
246 360 398 357 309 253 201 184 129 117 109 98 84 85 95 98 90 96 89 93 99 100
259 358 399 354 297 249 197 150 125 109 103 90 95 104 95 85 86 96 105 102 100 97
287 346 354 347 236 198 177 139 120 109 93 97 101 95 76 83 108 109 106 101 102 106
312 376 357 278 216 186 149 131 114 99 96 96 95 84 89 112 112 99 103 108 110 106
403 364 285 239 209 162 149 124 109 98 100 102 97 99 110 107 96 92 101 114 108 110
362 268 251 224 191 158 136 118 104 102 103 104 105 100 101 90 83 91 103 101 110 125
278 245 229 203 174 146 119 112 111 109 110 101 92 95 85 80 87 95 95 110 116 124
272 234 211 187 161 135 128 120 108 104 94 96 93 91 88 86 89 92 102 105 115 127
237 206 190 165 144 135 121 103 97 91 97 90 88 96 82 89 91 95 99 107 120 136
195 187 168 151 137 122 108 90 93 98 93 86 82 90 89 87 91 107 110 110 134 163
174 168 149 133 124 122 84 97 100 91 82 76 86 80 82 85 85 103 105 125 138 133
145 136 120 125 121 85 92 97 87 76 74 77 72 88 86 85 95 110 117 117 102 109
123 127 129 109 83 104 95 89 76 71 64 73 78 80 71 90 111 123 134 118 111 93
128 125 112 105 102 98 94 79 77 69 72 81 90 84 82 95 122 140 144 132 117 104

GFSNIL_con_3kmhel_051.txt.gz
Helicity
238 225 301 346 417 390 355 284 228 210 178 126 110 90 80 72 82 92 88 112 119 113
235 239 356 401 387 360 305 258 193 182 175 113 96 86 65 83 80 89 111 104 97 104
215 275 382 447 432 381 298 264 203 166 116 98 85 71 73 82 103 105 101 108 115 128
243 300 382 397 337 259 226 169 170 129 104 87 78 82 90 107 109 91 100 115 124 121
272 343 405 386 306 233 172 176 164 120 105 91 91 99 106 108 90 95 114 124 118 110
319 371 395 353 288 194 198 186 140 115 101 101 103 107 114 98 97 111 107 104 111 116
356 396 358 294 234 215 186 148 127 114 108 106 109 116 95 91 100 95 88 96 107 114
394 367 310 258 235 202 159 134 121 107 104 106 117 102 100 106 95 81 85 98 111 137
347 298 267 235 191 173 143 121 105 103 104 117 81 117 104 91 81 76 89 118 135 145
276 258 224 191 168 145 122 104 93 102 105 78 98 113 89 76 69 83 100 114 136 159
230 218 184 159 148 131 106 89 99 102 82 86 96 97 73 77 71 88 98 118 127 147
179 165 144 139 130 119 101 102 90 86 84 75 65 110 90 84 78 95 99 116 137 156
150 141 141 142 127 110 103 94 87 79 61 83 69 98 95 81 90 107 133 150 134 110
168 165 149 127 96 87 96 78 68 59 61 70 78 76 89 93 100 124 140 140 146 156

GFSNIL_con_3kmhel_057.txt.gz
Helicity
582 601 597 583 580 527 502 470 465 470 425 382 324 256 280 227 220 161 127 117 116 121
541 501 478 456 459 452 449 441 486 441 382 353 283 225 256 210 190 112 107 109 124 139
489 461 423 388 390 388 408 453 444 384 325 214 273 271 162 211 148 117 110 115 131 129
445 408 406 384 331 337 403 388 347 323 306 231 265 189 184 161 123 107 121 125 120 131
433 395 368 317 299 363 375 352 300 296 249 253 227 212 135 108 118 118 121 114 129 137
408 305 267 310 350 374 364 334 246 293 287 230 243 147 134 115 126 120 114 120 133 117
299 260 288 341 349 338 336 326 308 291 257 185 159 159 141 146 139 131 141 146 134 119
236 252 312 369 393 375 263 286 260 206 235 188 166 112 131 138 126 145 140 133 124 123
292 349 349 390 363 317 299 228 256 242 130 144 106 134 145 133 146 129 118 115 118 118
391 438 444 354 331 214 211 177 178 144 105 100 110 120 143 142 122 111 108 109 110 114
482 372 321 218 199 260 146 115 97 105 107 98 95 130 124 121 107 106 103 98 102 116
349 133 225 210 125 81 83 121 100 76 94 114 86 81 89 99 101 107 90 89 109 124
86 116 94 55 94 93 104 80 81 101 84 62 64 52 66 82 89 84 102 112 116 104
56 44 24 106 105 79 81 100 84 85 80 73 69 73 71 66 81 83 89 89 106 132

GFSNIL_con_3kmhel_060.txt.gz
Helicity
391 456 504 536 563 565 576 534 524 487 464 425 446 427 390 335 324 211 203 223 161 143
440 489 539 572 567 615 579 538 498 429 413 392 409 403 334 322 301 240 209 206 145 124
414 514 533 514 501 489 482 459 425 401 365 371 382 317 346 287 301 252 193 129 110 148
391 458 466 444 447 402 406 376 372 362 346 372 346 263 270 251 252 215 160 129 137 116
335 321 367 354 371 348 360 338 368 370 369 352 317 242 233 254 199 198 164 92 96 112
328 317 327 330 361 326 334 359 376 391 386 314 318 260 356 157 219 179 116 117 127 134
347 287 295 288 310 305 351 407 446 450 385 319 259 259 255 192 141 140 150 152 134 148
334 314 299 339 337 402 439 470 454 448 351 300 220 178 123 126 135 153 137 137 152 147
354 371 370 338 402 459 504 510 380 283 245 239 108 96 133 127 134 136 150 145 157 157
359 406 355 417 448 449 403 368 398 217 138 97 97 109 123 146 140 136 133 136 137 140
376 320 312 333 367 300 280 233 145 85 61 89 106 117 118 125 122 123 118 108 109 117
159 231 249 270 213 219 148 52 25 57 86 88 88 85 91 104 101 101 109 104 107 104
229 279 253 129 93 1 18 34 67 77 66 76 72 60 82 86 84 102 103 93 86 87
140 94 71 30 9 7 59 69 59 85 98 106 103 96 85 103 98 78 77 75 90 120

GFSNIL_con_3kmhel_063.txt.gz
Helicity
223 271 324 328 403 434 493 511 525 558 511 469 434 421 356 333 368 369 361 268 329 250
200 264 304 333 406 460 514 535 545 514 498 463 408 360 348 327 336 375 332 308 344 203
220 281 330 385 394 433 477 518 529 502 467 435 365 347 353 370 372 343 295 241 290 233
224 264 317 360 385 368 419 422 453 414 373 368 379 361 377 354 341 374 278 255 182 199
248 273 306 330 358 331 357 351 335 335 364 402 391 378 344 365 309 244 240 224 156 155
298 266 228 246 260 266 279 318 349 395 432 465 448 404 423 385 416 308 230 144 112 139
321 246 232 244 234 254 277 319 360 418 470 478 400 428 395 405 285 270 177 124 103 115
298 249 239 276 286 302 347 400 441 504 524 490 423 312 351 310 181 115 117 113 125 145
307 325 305 339 373 401 427 491 511 519 427 478 342 353 273 152 100 96 109 136 144 120
310 358 367 383 354 416 457 514 465 426 397 305 243 184 82 81 98 121 102 88 104 121
240 291 250 290 391 327 392 350 288 274 190 176 80 25 46 111 100 63 77 95 97 99
127 180 244 257 218 166 236 195 240 112 51 -1 41 70 75 76 61 91 104 97 99 80
138 213 169 99 180 176 144 92 33 15 34 51 63 56 57 72 90 90 93 87 89 107
115 115 95 166 26 39 11 9 39 70 73 74 78 79 83 115 90 77 81 85 96 106

GFSNIL_con_3kmhel_066.txt.gz
Helicity
184 254 266 261 278 314 287 329 401 426 457 465 466 433 428 387 339 304 306 283 316 319
130 177 233 276 298 299 309 353 355 438 464 439 416 416 391 361 359 372 375 334 330 255
138 147 170 226 261 315 353 350 377 414 430 440 406 385 377 387 381 397 405 374 342 348
190 212 203 213 242 291 309 303 352 380 380 390 396 386 411 421 419 420 382 393 346 353
256 259 237 197 190 214 241 261 295 320 345 373 418 434 461 495 501 461 318 275 381 262
280 283 247 183 164 176 212 229 265 330 367 377 402 441 414 404 341 383 346 358 330 262
246 255 250 176 172 188 226 256 294 321 372 409 449 441 444 460 432 384 306 311 288 262
218 219 245 227 237 246 267 283 313 371 426 462 484 460 465 381 354 178 185 176 124 75
212 209 237 258 254 288 295 308 363 480 446 460 422 396 322 228 211 166 114 61 57 67
169 224 244 252 286 273 300 342 376 344 291 300 262 224 207 137 127 64 41 66 79 96
132 157 216 223 260 217 273 293 276 268 246 220 200 188 99 64 56 41 52 69 76 77
92 141 168 179 233 206 273 254 268 233 227 154 66 34 36 35 35 65 78 71 65 58
83 145 195 176 180 156 163 167 108 71 67 24 -9 14 18 60 56 64 68 68 63 67
119 103 97 91 65 65 42 30 22 37 6 25 48 61 77 61 51 56 59 60 63 75

GFSNIL_con_3kmhel_069.txt.gz
Helicity
145 154 164 182 224 235 234 220 183 244 253 246 266 290 313 331 329 370 357 305 309 331
127 121 106 107 150 190 212 241 220 205 245 257 262 275 296 352 367 364 352 325 314 356
125 131 126 136 137 156 183 195 174 177 222 257 267 296 349 382 386 399 388 372 373 378
149 188 203 209 211 195 189 173 169 167 209 276 320 321 366 381 386 413 430 431 443 446
160 184 227 238 230 195 176 152 170 211 232 281 340 370 379 410 399 433 485 525 543 558
162 180 237 272 240 192 169 166 182 228 283 323 388 412 408 427 445 439 422 411 403 338
116 162 221 253 241 220 203 223 260 282 317 330 396 416 407 414 399 377 319 321 302 255
166 206 223 236 222 198 224 251 250 335 349 353 369 324 387 369 316 290 273 268 236 142
140 154 170 169 170 204 214 242 287 313 385 405 379 280 255 271 234 202 241 173 95 54
111 136 157 146 171 221 229 247 242 221 199 155 148 151 166 188 219 191 147 75 63 75
90 79 74 101 207 199 190 232 203 239 248 281 236 181 149 164 129 82 65 74 51 57
67 70 78 146 180 167 156 209 158 160 173 155 127 142 117 73 50 61 71 56 40 40
44 67 66 101 122 145 144 122 121 131 95 79 67 52 50 40 47 59 44 50 66 80
42 54 36 51 69 62 56 45 35 26 22 23 14 37 46 31 33 45 54 63 69 80

GFSNIL_con_3kmhel_072.txt.gz
Helicity
152 159 157 145 140 143 141 119 91 120 146 179 204 226 216 242 264 281 326 302 339 388
109 111 110 91 123 142 135 145 136 136 168 196 241 251 271 305 270 290 330 315 322 384
133 135 132 130 118 119 146 155 138 159 170 191 225 258 272 288 303 334 366 406 421 481
154 184 202 206 200 178 173 169 154 150 149 153 185 258 340 342 344 379 414 437 498 520
161 170 187 212 224 226 236 223 190 164 161 168 180 210 292 339 352 377 401 384 375 359
171 188 200 214 232 243 247 246 219 178 159 165 218 260 283 349 406 389 338 318 271 251
138 129 143 175 220 253 253 235 222 201 197 206 265 319 341 367 388 374 371 311 262 242
136 150 172 186 201 202 228 213 204 234 271 241 296 346 376 368 351 298 288 281 253 202
144 146 142 130 135 168 181 199 211 266 300 357 313 316 281 217 325 199 240 163 186 158
113 133 109 81 90 131 139 177 258 282 243 195 151 120 105 129 149 135 118 128 143 124
109 123 89 86 101 134 108 214 199 215 193 191 190 204 176 156 150 97 108 108 98 85
66 97 71 67 85 79 109 103 130 164 165 187 145 115 85 79 95 86 83 70 64 62
28 57 71 65 94 110 102 81 104 100 90 62 49 46 66 72 43 41 52 53 53 59
47 76 82 76 85 103 72 66 69 51 38 30 24 32 36 33 38 49 58 63 73 86

GFSNIL_con_3kmhel_075.txt.gz
Helicity
136 154 165 147 138 134 139 122 135 126 118 141 161 181 226 273 317 332 308 309 362 432
108 104 112 135 126 137 172 189 182 152 160 146 160 187 222 285 318 345 361 489 578 565
117 127 125 119 124 131 129 164 174 200 186 167 181 208 262 317 392 474 517 526 502 475
156 184 203 195 210 249 222 163 161 180 190 176 175 205 256 305 338 383 398 380 398 416
143 152 162 169 179 167 160 156 158 179 197 197 198 201 210 237 235 269 323 354 379 333
145 152 175 208 232 248 262 279 280 256 237 205 181 175 205 224 257 291 298 303 278 242
160 180 190 209 214 227 249 263 283 291 284 259 233 224 221 268 314 370 381 323 278 240
143 152 176 192 210 225 235 224 214 210 186 169 186 183 256 249 306 305 308 277 287 179
137 134 135 146 159 153 142 131 122 149 160 173 136 170 200 213 275 246 218 178 198 165
99 106 109 106 102 85 117 136 151 163 167 179 213 216 175 177 201 123 135 116 96 105
72 92 105 83 92 100 127 112 139 120 155 179 140 147 149 134 86 71 78 75 79 87
77 88 95 110 100 78 96 139 121 131 143 144 142 126 88 60 57 70 70 60 49 45
87 98 108 68 46 90 88 97 73 83 76 60 55 52 56 56 36 31 35 47 62 74
94 103 77 66 67 59 42 43 43 37 33 36 37 40 48 49 45 47 55 57 65 74

GFSNIL_con_3kmhel_078.txt.gz
Helicity
251 209 194 208 231 190 144 152 178 168 133 120 121 142 173 204 217 249 295 343 386 431
155 168 154 157 178 218 219 214 215 158 126 114 109 122 135 164 191 244 299 388 441 473
126 134 135 141 154 183 208 210 200 188 185 180 183 183 185 234 279 348 416 448 455 467
146 167 183 209 220 210 207 188 154 161 199 226 228 219 225 241 244 279 317 349 366 369
142 164 188 220 235 192 188 211 206 221 249 261 255 243 231 240 247 264 282 284 297 302
165 175 202 227 251 268 276 278 288 264 247 250 253 268 279 279 258 249 244 234 235 238
142 150 158 177 203 223 214 205 203 214 220 224 223 231 220 201 204 207 234 234 230 228
116 131 137 142 146 152 162 167 167 173 171 149 127 110 131 138 188 198 267 301 329 260
112 115 117 122 126 138 144 141 143 155 140 134 97 123 140 173 162 192 207 228 208 257
97 105 109 98 110 130 122 137 164 159 149 143 123 118 114 129 108 126 107 107 100 84
78 90 93 103 112 117 113 129 130 144 100 110 89 87 108 118 78 76 62 62 52 41
73 78 92 86 100 98 119 125 146 95 103 86 68 76 65 51 43 41 34 34 31 35
88 107 99 93 108 107 115 86 55 46 28 41 33 50 46 25 13 28 27 27 57 90
103 108 102 112 87 76 49 23 20 36 33 22 27 33 44 47 48 45 53 68 80 93

GFSNIL_con_3kmhel_081.txt.gz
Helicity
261 240 216 219 271 290 262 212 151 133 166 164 142 126 119 130 138 164 196 226 286 370
224 217 216 231 224 257 277 264 281 206 162 167 134 120 128 135 141 153 178 213 293 382
173 183 176 169 176 175 200 219 229 262 250 231 211 195 186 176 179 206 236 281 330 390
149 163 183 201 199 192 200 211 225 226 238 250 244 229 222 233 244 253 265 285 294 290
156 177 201 240 251 239 237 236 230 233 235 234 231 237 242 242 236 238 244 238 242 231
136 154 168 189 202 212 202 201 207 197 198 196 200 214 224 227 238 245 259 249 265 278
106 127 147 162 178 185 180 173 183 182 173 177 182 186 184 183 197 224 239 231 228 215
104 131 150 169 180 186 201 194 180 181 191 179 168 140 143 144 129 158 175 219 214 202
121 131 146 158 164 171 171 165 165 162 153 148 126 132 123 121 129 130 138 160 157 125
119 132 127 115 130 139 148 145 140 147 117 115 101 114 115 100 85 76 70 66 57 66
125 122 101 110 134 156 149 129 125 129 97 86 82 105 90 95 69 57 46 36 43 44
84 95 93 97 114 112 121 118 113 106 83 87 67 64 50 42 30 34 31 35 44 59
93 99 86 80 100 112 107 81 57 66 54 48 26 34 34 25 15 30 29 29 50 80
96 94 88 93 84 72 43 28 21 31 23 21 21 29 43 43 32 33 44 53 64 74

GFSNIL_con_3kmhel_084.txt.gz
Helicity
272 254 234 231 225 216 187 159 155 156 177 165 152 170 161 161 154 162 168 174 198 231
246 229 206 204 204 217 246 255 249 208 186 190 207 191 168 166 171 177 190 206 228 266
213 211 199 185 183 190 209 238 266 298 316 324 301 228 210 199 189 182 179 180 202 225
151 161 176 182 187 186 198 208 224 237 259 259 265 283 275 243 205 199 204 224 237 261
119 144 171 196 213 210 216 231 229 239 249 258 262 255 246 240 236 225 239 237 241 244
117 136 165 199 224 230 233 235 241 239 241 233 240 248 255 240 231 223 214 199 197 185
123 143 172 196 214 217 208 207 211 223 230 237 241 239 219 212 217 218 209 191 192 192
95 135 160 182 194 202 207 198 198 216 227 213 186 162 175 177 173 167 181 196 173 163
108 138 154 178 191 202 210 203 197 193 178 173 157 145 144 127 130 134 140 147 142 140
120 142 149 169 183 195 190 178 181 166 157 143 130 130 130 141 116 100 82 72 77 76
135 151 143 150 171 164 155 157 143 131 115 113 96 100 106 103 82 80 72 62 58 57
124 132 123 119 127 123 136 138 121 113 125 94 83 85 79 69 67 67 55 50 50 55
118 106 103 90 105 109 110 92 107 134 83 68 47 43 45 41 35 41 36 45 57 69
99 96 93 95 86 87 90 83 78 82 63 56 35 29 33 35 26 28 36 43 47 56

GFSNIL_con_3kmhel_087.txt.gz
Helicity
224 186 164 160 167 168 168 154 144 151 176 181 184 185 186 180 165 165 164 154 153 169
218 205 187 188 175 165 166 157 163 149 154 180 193 194 206 219 238 225 199 177 181 192
221 219 195 187 179 172 180 191 210 225 242 283 316 327 304 267 229 207 187 167 181 184
202 184 170 165 176 171 175 185 192 199 225 264 297 309 307 288 296 277 242 220 211 223
151 148 150 156 174 187 197 216 218 228 242 260 277 288 273 275 286 268 237 227 234 232
122 126 131 146 175 193 195 215 245 256 264 266 271 278 285 279 269 272 244 218 196 190
92 99 113 148 182 200 206 210 219 225 231 229 225 234 231 238 256 250 239 225 201 173
63 89 117 158 191 202 205 204 200 204 215 211 209 196 215 232 228 232 218 206 176 160
64 92 120 147 177 197 207 214 213 218 213 212 196 183 188 194 192 187 176 174 175 169
44 93 127 142 159 177 189 197 203 199 192 189 173 155 141 145 142 142 139 128 107 120
71 116 129 133 146 166 173 183 163 154 148 140 128 120 134 122 116 123 107 89 80 71
93 117 114 106 128 142 144 152 142 130 137 142 124 107 110 117 118 103 90 65 48 50
107 113 107 104 112 117 129 137 135 142 121 107 92 87 82 78 70 74 58 50 47 60
109 113 105 105 98 104 132 133 126 138 115 85 60 61 66 60 46 43 43 42 46 50

GFSNIL_con_3kmhel_090.txt.gz
Helicity
183 158 138 123 121 120 126 128 146 135 143 154 169 183 207 232 215 216 206 191 193 199
221 197 166 149 140 134 136 141 161 168 146 148 160 183 210 233 269 300 275 230 211 189
224 204 186 176 167 175 165 163 181 180 186 200 222 225 287 356 360 305 264 203 182 168
200 210 212 204 221 196 182 178 176 176 183 197 216 249 300 328 301 279 249 217 209 217
189 205 209 201 189 178 170 183 170 174 183 197 220 240 254 261 262 245 243 231 247 210
183 168 150 143 143 153 157 167 179 182 196 212 228 248 274 273 276 280 273 240 212 214
119 100 90 94 114 137 155 167 175 182 188 201 212 227 237 249 264 273 260 245 248 227
68 67 75 98 114 134 163 172 170 179 186 191 190 187 209 226 232 239 255 263 239 193
45 45 55 87 110 135 168 179 176 180 174 186 174 171 183 201 223 226 219 215 212 189
20 17 32 90 117 148 156 161 172 174 183 191 179 167 175 186 202 192 179 160 148 137
15 30 59 110 136 150 158 162 162 178 178 181 164 145 133 142 157 151 131 112 84 77
33 48 86 104 111 120 132 146 156 158 161 146 132 116 118 120 120 116 100 73 57 69
91 77 105 103 99 112 130 145 146 150 124 109 109 100 93 102 88 85 66 59 59 67
110 101 112 118 109 106 133 144 144 141 117 103 85 81 69 57 52 42 46 48 51 58

GFSNIL_con_3kmhel_093.txt.gz
Helicity
166 144 141 129 122 119 118 113 128 128 113 103 111 119 135 161 168 175 202 193 196 199
206 181 170 153 133 128 130 136 139 139 140 134 132 142 161 192 194 215 214 222 239 251
233 224 203 184 163 149 136 136 138 143 159 170 190 189 184 233 279 321 338 314 281 242
269 253 230 200 180 164 163 169 166 172 168 174 181 192 219 269 314 350 337 300 255 235
212 204 204 209 206 198 199 200 183 167 163 161 182 185 188 209 240 250 269 265 247 230
203 211 215 204 200 188 173 171 167 153 158 163 177 192 209 220 248 281 278 259 249 226
160 166 176 167 154 140 129 128 150 160 152 155 173 200 216 235 266 292 290 276 259 227
120 97 83 76 80 90 97 110 111 127 152 162 184 189 205 222 231 254 275 279 252 230
77 66 46 30 33 55 79 100 145 154 154 154 162 160 174 199 223 228 232 242 246 221
75 52 23 4 12 48 99 114 143 148 149 170 162 143 170 188 222 219 204 176 180 171
85 52 -9 -33 10 74 124 130 139 158 171 167 163 152 160 190 201 193 165 138 125 115
98 88 36 -9 52 91 113 137 158 155 156 154 145 138 120 141 151 144 129 114 93 78
129 115 103 58 91 108 102 123 127 141 131 108 104 90 92 100 100 109 105 85 60 53
123 111 132 115 130 122 117 129 138 134 118 103 84 83 74 79 84 73 63 49 48 47

GFSNIL_con_3kmhel_096.txt.gz
Helicity
82 116 93 98 115 117 166 140 134 109 112 109 107 106 112 134 143 145 160 143 168 199
186 176 141 121 129 137 140 142 132 126 122 124 119 117 138 161 158 170 184 178 191 207
249 236 199 176 157 156 158 159 151 152 146 143 144 141 153 180 195 196 256 280 278 308
281 273 257 240 221 210 200 187 169 160 152 154 158 171 174 179 211 231 278 298 308 308
198 214 227 225 216 203 188 170 157 140 141 155 177 183 175 179 195 216 251 287 277 255
146 142 145 139 131 129 130 142 145 138 151 167 180 179 187 189 211 242 255 239 230 264
143 148 154 153 149 144 149 148 158 166 161 155 149 147 159 185 213 249 274 274 254 240
160 163 159 154 148 134 132 128 120 120 119 110 118 139 148 176 208 230 266 285 287 274
155 151 143 118 94 74 67 70 73 81 97 108 121 140 171 194 221 222 234 271 268 241
106 108 105 88 58 23 6 29 75 84 101 118 132 136 164 200 245 259 257 247 245 225
102 111 109 89 59 -17 -39 11 63 99 118 134 135 140 162 193 217 242 215 200 164 157
108 112 103 89 93 53 -30 36 86 113 121 130 133 125 149 190 208 186 172 147 131 118
107 120 108 106 119 147 70 51 90 117 105 108 114 100 120 128 129 135 138 126 105 86
110 129 118 121 136 147 127 114 99 116 121 104 88 82 80 82 97 105 100 84 73 57

GFSNIL_con_3kmhel_099.txt.gz
Helicity
73 79 62 73 72 52 76 101 36 65 92 66 84 98 103 112 166 198 190 179 179 184
190 143 173 216 225 208 184 178 124 52 149 116 119 113 140 156 153 160 155 163 168 192
200 194 183 172 202 204 178 159 188 150 170 140 136 137 136 151 158 170 210 239 229 264
217 221 232 262 237 238 213 203 212 213 196 169 162 155 162 169 189 189 224 252 245 293
191 200 210 217 219 195 187 183 178 180 185 179 173 180 163 154 170 180 187 209 248 270
154 158 155 159 169 169 161 156 149 145 148 152 157 160 165 176 193 205 211 214 223 240
156 159 157 156 149 143 137 128 126 138 144 157 165 180 175 191 192 196 213 251 261 244
150 149 145 142 143 141 140 137 132 122 131 147 164 163 159 156 157 179 212 267 309 330
141 145 151 150 145 132 111 85 66 72 86 97 122 136 150 156 172 202 211 244 263 267
134 136 133 128 119 111 98 79 48 33 55 96 116 102 113 169 192 225 256 254 263 265
96 98 98 102 114 118 107 95 55 20 11 89 132 120 122 139 181 207 224 227 230 220
92 103 111 121 129 122 118 124 104 39 -2 89 123 101 93 138 189 214 222 200 188 166
105 108 104 109 138 127 127 125 127 84 40 85 104 80 86 132 173 176 172 160 159 125
127 121 115 116 122 115 131 131 132 120 116 98 97 81 69 87 103 122 132 125 122 101

GFSNIL_con_3kmhel_102.txt.gz
Helicity
83 129 113 123 86 78 111 10 71 172 80 119 130 117 54 77 125 97 -31 32 146 180
144 118 79 73 60 70 98 37 37 67 22 5 -33 -45 -18 -9 -67 -19 25 71 100 149
160 191 214 203 156 188 180 194 146 116 92 69 34 50 71 103 104 106 119 153 159 178
166 206 269 272 289 246 270 222 233 203 233 232 211 187 166 192 196 177 185 193 198 205
136 134 192 203 205 190 202 234 226 213 211 206 198 176 188 188 191 175 161 156 176 195
141 156 164 167 182 189 186 183 203 207 205 202 192 187 189 183 165 161 158 154 171 194
189 179 173 165 165 173 161 154 157 167 163 164 156 162 147 159 166 178 195 213 207 203
199 192 176 168 156 148 151 141 134 123 125 136 155 157 179 153 152 164 178 215 241 255
164 164 159 156 153 156 159 159 146 140 126 116 102 117 134 154 156 159 167 193 220 236
139 144 148 155 154 142 131 125 118 111 104 96 73 39 97 175 177 189 187 200 220 252
120 129 131 129 132 147 142 138 130 123 113 97 63 3 80 137 178 186 196 207 208 217
101 110 113 123 137 138 136 131 124 113 118 115 90 8 59 117 161 176 188 178 192 187
109 115 112 124 134 122 119 118 119 126 130 118 113 67 88 90 127 163 168 160 142 118
144 139 135 157 145 112 117 118 113 122 136 140 127 112 74 80 101 113 123 119 124 122

GFSNIL_con_3kmhel_105.txt.gz
Helicity
170 156 145 119 132 125 155 189 218 163 110 130 70 84 134 288 266 179 180 129 156 122
156 161 126 120 114 126 160 175 218 93 82 21 108 93 59 77 60 41 41 44 10 70
134 152 160 164 114 68 99 86 71 53 26 -6 2 -1 -25 3 -8 -8 8 46 76 90
206 185 147 137 105 77 116 121 135 146 108 120 87 100 86 82 104 78 73 85 87 85
169 114 131 135 113 131 112 140 173 179 203 249 235 188 155 138 131 111 101 94 111 127
126 129 113 129 147 168 205 218 207 200 209 204 192 182 186 175 156 149 150 148 152 156
147 147 144 128 147 127 130 148 169 180 177 168 165 170 161 161 157 162 170 170 165 174
182 171 158 177 161 161 155 152 149 159 162 158 158 157 155 143 135 141 157 191 201 201
176 167 170 168 155 153 150 145 148 148 135 136 131 122 105 88 85 92 115 134 158 170
146 154 148 146 142 138 134 139 140 135 119 106 89 85 84 73 57 84 126 152 146 158
117 120 120 121 128 145 143 131 123 112 106 102 107 111 110 89 36 61 117 137 147 156
94 104 109 122 128 133 136 134 129 127 123 121 118 108 99 118 73 69 126 146 157 158
84 90 91 99 106 116 123 118 115 99 86 87 93 79 107 122 108 99 124 136 136 127
99 98 100 107 119 127 138 137 122 103 107 105 98 105 99 105 137 102 114 113 113 107

GFSNIL_con_3kmhel_108.txt.gz
Helicity
141 142 137 139 145 131 140 174 136 161 176 170 178 198 202 187 239 173 293 348 257 254
113 99 88 89 98 102 105 97 106 131 139 134 74 89 124 134 111 58 87 100 53 91
103 97 95 75 75 80 90 77 76 79 64 62 44 17 9 -13 28 46 -3 -11 5 17
85 87 82 93 97 94 89 84 85 82 69 56 83 67 50 57 68 82 69 74 78 74
127 100 94 91 113 97 87 114 119 91 97 123 140 167 149 122 118 85 63 50 60 64
127 118 123 133 129 126 136 145 116 133 118 122 124 134 151 134 122 118 107 104 97 86
94 104 114 122 128 121 125 148 150 139 139 144 138 132 129 124 130 122 119 117 109 112
131 139 142 150 159 147 142 145 149 145 139 136 139 133 135 133 122 116 112 108 115 131
153 153 162 170 149 144 144 141 132 127 131 129 124 144 146 133 111 94 76 64 62 83
156 164 149 134 129 131 123 128 133 139 139 141 131 123 125 128 107 96 79 51 30 64
140 135 132 135 127 123 123 125 128 129 127 118 110 105 92 94 97 89 80 59 27 34
106 112 110 106 107 122 129 125 118 116 108 99 91 86 87 103 97 95 98 94 61 47
91 93 101 106 107 114 115 108 115 111 112 105 97 84 79 105 113 113 110 112 80 89
78 81 83 96 110 110 112 115 112 109 118 124 120 117 91 73 107 115 113 108 81 99

GFSNIL_con_3kmhel_111.txt.gz
Helicity
148 160 137 175 195 185 182 192 152 136 170 163 146 150 164 200 189 182 161 89 44 121
114 129 97 98 115 108 110 115 113 111 125 145 156 125 103 91 69 86 140 123 92 67
106 108 92 87 82 77 84 85 89 92 107 103 103 78 39 38 18 32 46 68 42 54
105 90 85 76 60 45 39 63 75 75 91 108 82 58 63 62 58 48 63 62 63 50
87 76 75 70 64 60 53 67 74 85 97 111 120 121 112 116 103 82 63 69 71 72
108 99 88 84 83 93 104 103 119 131 148 160 167 164 155 123 118 88 79 74 82 74
99 80 75 78 85 104 113 118 123 152 156 151 154 138 124 126 125 113 99 80 69 67
106 101 94 98 112 125 136 131 127 132 127 120 127 130 133 133 130 122 116 110 89 76
120 131 135 144 142 151 161 154 150 139 119 125 123 145 151 136 132 126 118 112 109 93
118 134 138 145 155 161 163 159 165 157 151 151 145 142 139 145 112 110 107 102 97 90
149 153 162 167 172 160 155 163 150 143 142 136 126 115 117 111 90 80 80 83 89 87
133 143 145 139 132 131 138 135 131 131 133 127 113 104 96 81 72 59 56 68 98 104
99 109 107 107 110 125 125 127 125 130 120 105 98 95 74 80 94 95 59 66 92 97
90 93 99 110 124 113 122 124 115 104 101 102 103 113 87 81 117 105 82 65 102 90

GFSNIL_con_3kmhel_114.txt.gz
Helicity
-61 18 -37 -47 49 31 120 29 113 30 63 115 87 65 109 126 149 155 134 127 88 106
19 26 42 -50 27 78 119 179 233 181 127 126 147 124 126 113 118 111 100 59 80 60
111 100 92 100 98 76 101 80 85 87 79 92 99 111 101 97 58 52 55 73 63 63
75 95 76 84 109 98 87 82 81 72 70 73 66 93 88 88 91 78 76 73 60 66
108 103 93 99 96 79 79 71 66 67 78 89 107 119 113 131 103 82 96 103 95 101
99 106 112 96 80 78 79 78 103 114 120 129 137 152 147 130 119 120 129 114 123 119
107 110 107 101 85 83 85 87 102 116 134 157 190 194 175 158 143 128 115 102 96 86
111 109 103 100 83 92 109 121 133 159 175 169 163 141 144 133 117 113 113 118 108 103
113 105 99 95 98 119 140 153 162 169 158 162 152 145 131 111 112 114 115 111 103 93
115 120 119 120 132 147 160 167 180 177 159 151 140 137 145 134 113 106 96 86 83 98
134 144 131 132 147 158 161 161 164 154 143 140 131 127 139 143 125 119 109 84 70 64
138 135 149 159 164 177 179 174 161 156 159 151 144 145 149 146 147 117 96 77 64 58
125 137 138 149 158 175 170 161 153 146 145 142 125 108 105 115 114 94 82 93 94 59
103 106 106 115 131 135 141 140 132 122 103 96 91 91 77 71 95 100 118 126 123 106

GFSNIL_con_3kmhel_117.txt.gz
Helicity
66 178 289 239 337 244 204 159 99 86 68 41 106 70 48 17 24 69 112 138 160 119
-12 30 95 159 78 161 146 78 101 56 101 104 41 75 96 27 76 93 123 143 127 121
-15 -53 -69 -72 -13 -34 42 -1 -15 -11 31 50 83 109 105 86 85 95 101 89 79 80
48 45 42 33 20 -6 36 84 98 96 78 65 64 79 98 110 124 121 104 105 104 97
79 69 75 92 122 89 96 69 69 65 71 68 79 88 91 126 133 136 148 121 98 96
105 107 103 102 89 70 66 49 64 82 90 92 103 107 113 119 129 137 124 105 106 112
85 79 90 94 93 86 73 85 83 108 132 148 157 177 189 204 197 180 166 148 128 110
96 98 110 112 104 99 93 98 119 144 161 165 165 161 168 167 159 157 155 142 123 103
108 114 110 120 113 112 105 106 129 142 157 171 179 160 163 157 155 144 123 102 90 88
112 128 126 113 109 105 116 138 148 157 166 178 184 172 161 153 141 137 117 95 78 70
109 121 133 147 157 156 152 151 164 178 183 197 184 163 152 128 116 106 88 81 67 60
134 145 155 163 173 173 156 178 183 181 181 169 151 133 118 117 113 109 92 92 85 82
133 149 153 164 173 192 197 202 196 182 148 126 122 98 101 112 121 115 121 129 115 93
112 102 109 124 133 142 153 159 144 144 126 116 103 87 61 74 114 129 128 130 109 105

GFSNIL_con_3kmhel_120.txt.gz
Helicity
119 345 399 245 218 219 249 265 248 224 175 150 142 146 144 145 108 102 96 -54 109 122
61 132 185 574 319 247 264 310 252 229 217 182 126 126 96 151 178 33 -4 104 114 117
19 49 104 209 258 423 289 226 189 151 147 83 51 85 192 113 -42 61 97 119 100 137
68 4 41 -15 56 33 130 239 176 53 29 97 -1 17 -21 44 123 159 143 113 136 129
21 -31 -33 -58 -41 -105 -72 30 116 32 -3 4 53 136 96 102 114 127 133 124 120 121
42 11 26 34 31 29 17 68 114 112 81 65 71 55 69 96 96 123 119 112 108 97
76 63 61 97 90 58 57 68 76 65 60 70 89 102 129 132 135 146 153 150 140 122
86 87 97 91 86 80 73 85 88 102 113 131 126 138 147 160 161 164 159 160 154 144
95 100 94 97 91 107 114 100 129 113 126 150 163 159 163 157 158 160 154 147 139 124
95 116 131 128 115 128 138 127 132 129 148 166 172 177 183 188 176 172 150 127 119 111
92 116 126 128 129 136 127 143 136 154 166 169 175 164 177 180 164 146 132 125 116 107
94 105 113 132 151 147 137 146 162 171 179 183 189 179 175 169 158 149 139 131 118 102
114 117 125 137 140 151 177 190 188 183 186 175 172 160 149 148 153 138 133 122 107 86
147 149 146 153 173 177 183 183 177 174 197 178 170 145 124 114 133 130 119 109 108 116